[[{"header":{"parameterUnit":"m.s-1","parameterCategory":1,"la1":30.2991,"la2":30.254,"lo1":-89.0895,"lo2":-89.0444,"dy":0.0017,"dx":0.0017,"nx":28,"ny":28,"refTime":"2025-03-18T21:00:00:Z","depth":0,"parameterNumber":2,"parameterNumberName":"U-component_of_WINDS"},"data":[0,0,0,0,0,0,0,0,0,0,0,0,0,0,0,0,0,0,0,0,0,0,0,0,0,0,0,0,0,0,0,0,0,0,0,0,0,0,0,0,0,0,0,0,0,0,0,0,0,0,0,0,0,0,0,0,0,0,-0.0187,-0.0187,0,-0.0168,-0.0168,-0.0168,-0.0181,-0.0182,-0.0183,-0.0183,-0.0162,-0.0161,-0.016,0,0,0,0,0,0,0,0,0,0,0,0,0,-0.023,-0.0229,-0.0187,-0.0187,-0.0186,-0.0169,-0.0168,-0.0168,-0.0181,-0.0182,-0.0183,-0.0183,-0.0162,-0.0161,-0.016,0,0,0,0,0,0,0,0,0,0,0,0,0,-0.0211,-0.0228,-0.0187,-0.0191,-0.0191,-0.0169,-0.0168,-0.0168,-0.0181,-0.0182,-0.0183,-0.0184,-0.0163,-0.0161,-0.016,-0.0131,0,0,-0.0155,-0.0154,0,0,0,0,0,0,0,0,-0.0212,-0.0209,-0.0191,-0.0191,-0.0191,-0.0178,-0.0176,-0.0156,-0.0181,-0.0185,-0.0183,-0.0184,-0.0167,-0.0165,-0.0159,-0.0131,-0.013,-0.0154,-0.0153,-0.0153,-0.0152,0,0,0,0,0,0,0,-0.0213,-0.021,-0.018,-0.019,-0.019,-0.0192,-0.0191,-0.0172,-0.0171,-0.0185,-0.0186,-0.0183,-0.0167,-0.0161,-0.0159,-0.0129,-0.0154,-0.0153,-0.0152,-0.0151,-0.0073,-0.0072,0,0,0,0,0,0,-0.0215,-0.0211,-0.018,-0.0179,-0.0204,-0.0191,-0.0189,-0.0181,-0.0171,-0.017,-0.0183,-0.0184,-0.0163,-0.0161,-0.0158,-0.0122,-0.0153,-0.0151,-0.015,-0.0074,-0.0073,-0.0072,0,0,0,0,0,0,-0.0216,-0.0212,-0.0181,-0.0195,-0.0192,-0.0189,-0.018,-0.018,-0.0174,-0.017,-0.0169,-0.0177,-0.0164,-0.016,-0.0137,-0.0122,-0.015,-0.0149,-0.0075,-0.0074,-0.0072,-0.0051,0,0,0,0,0,0,-0.0217,-0.0212,-0.0202,-0.0195,-0.0191,-0.0162,-0.0179,-0.0179,-0.0172,-0.0173,-0.0164,-0.0163,-0.0164,-0.014,-0.0136,-0.012,-0.0148,-0.0077,-0.0075,-0.0073,-0.0053,-0.0049,-0.0046,0,0,0,0,0,-0.0218,-0.0197,-0.0202,-0.0198,-0.0179,-0.0161,-0.0158,-0.016,-0.0171,-0.016,-0.0156,-0.0164,-0.0124,-0.0137,-0.0133,-0.0116,-0.0078,-0.0075,-0.0073,-0.0055,-0.005,-0.0046,0,0,0,0,0,0,-0.0203,-0.0197,-0.0201,-0.0178,-0.017,-0.0163,-0.015,-0.0155,-0.0143,-0.0145,-0.0148,-0.0145,-0.0121,-0.0116,-0.0131,-0.0087,-0.0102,-0.0099,-0.0091,-0.0086,-0.0082,-0.0083,-0.0146,0,0,0,0,0,-0.0197,-0.0183,-0.0179,-0.0158,-0.0154,-0.0152,-0.0145,-0.0147,-0.0138,-0.0135,-0.013,-0.012,-0.0105,-0.0095,-0.0082,-0.0053,-0.005,-0.0039,-0.0035,-0.0032,-0.0029,-0.001,-0.0005,-0.0064,-0.0064,-0.0064,0,0,-0.0184,-0.0179,-0.017,-0.0155,-0.0149,-0.0133,-0.0149,-0.0133,-0.0121,-0.0132,-0.0109,-0.0105,-0.0094,-0.0068,-0.0056,-0.0063,-0.0012,-0.0029,-0.0027,-0.0025,-0.0007,-0.0002,0.0003,-0.0062,-0.0062,-0.0063,0,0,-0.0152,-0.0148,-0.0129,-0.0123,-0.0113,-0.0112,-0.0107,-0.01,-0.0097,-0.0075,-0.0081,-0.0067,-0.0042,-0.0033,-0.0026,0.0012,0.0007,0.0016,0.0037,0.0055,0.006,0.0064,0.008,0.0085,0.002,0.002,0.002,0,-0.0137,-0.0115,-0.0119,-0.0101,-0.0093,-0.0102,-0.0082,-0.0075,-0.0061,-0.0055,-0.0064,-0.0031,-0.0025,0.0005,0.0015,0.002,0.0027,0.0016,0.0059,0.0063,0.0067,0.0083,0.0088,0.0021,0.0021,0.0021,0.0021,0,-0.0096,-0.0081,-0.0066,-0.0053,-0.0043,-0.0025,-0.0024,-0.0013,-0.0016,-0.0013,0.0012,0.0019,0.0036,0.0042,0.004,0.0073,0.0068,0.0059,0.0044,0.0074,0.0089,0.0094,0.0023,0.0022,0.0022,0.0022,0,0,-0.0054,-0.0042,-0.0036,-0.0029,-0.0018,-0.0006,0.0013,0.0029,0.0039,0.0049,0.0067,0.0089,0.0082,0.0091,0.0089,0.0105,0.0138,0.0095,0.0095,0.0104,0.0178,0.0186,0.0193,0.0134,0.0135,0.0136,0.0178,0,-0.002,0.0012,0.0011,0.0042,0.0058,0.005,0.0068,0.0077,0.0081,0.0096,0.01,0.0117,0.0104,0.011,0.0125,0.013,0.0153,0.0127,0.0153,0.0154,0.0152,0.02,0.0208,0.0247,0.0183,0.0184,0.0185,0,0.0023,0.0035,0.0068,0.0079,0.0085,0.0101,0.0116,0.013,0.0142,0.0143,0.0154,0.0151,0.0173,0.0156,0.0188,0.0171,0.0181,0.0186,0.0187,0.0191,0.0172,0.0207,0.0259,0.0266,0.0193,0.0193,0.0192,0,0.0053,0.0078,0.0101,0.0107,0.0119,0.0131,0.0137,0.0147,0.0158,0.0172,0.0179,0.0196,0.0205,0.0219,0.0221,0.0208,0.0254,0.0237,0.0258,0.0259,0.0269,0.0269,0.0326,0.0273,0.0273,0.0273,0.0273,0,0.0092,0.0113,0.0115,0.013,0.0154,0.0153,0.0177,0.0182,0.0192,0.0209,0.0204,0.022,0.0221,0.0239,0.0241,0.0269,0.0272,0.0276,0.0277,0.0278,0.0278,0.0286,0.0284,0.0274,0.0274,0.0274,0.0273,0,0.013,0.0131,0.0157,0.0167,0.017,0.0188,0.0197,0.0212,0.0216,0.0238,0.0243,0.0249,0.027,0.0273,0.0297,0.0299,0.0333,0.0329,0.0329,0.0329,0.0351,0.035,0.0417,0.0427,0.0365,0.0366,0.0366,0,0.0155,0.0171,0.0183,0.0194,0.0201,0.0218,0.0229,0.0229,0.0241,0.0256,0.027,0.029,0.0307,0.034,0.0348,0.0367,0.0366,0.0388,0.0369,0.037,0.0369,0.0369,0.0372,0.0393,0.0393,0.0394,0.0394,0,0.0201,0.0202,0.0217,0.0233,0.0246,0.0259,0.0271,0.0281,0.0283,0.0297,0.0318,0.0331,0.0356,0.0377,0.0397,0.0405,0.0401,0.04,0.0407,0.0409,0.0408,0.0411,0.0341,0.0399,0.0398,0.0398,0.0398,0.0398,0.0235,0.025,0.0261,0.0279,0.0288,0.0301,0.0316,0.0322,0.0339,0.0359,0.0359,0.0383,0.0397,0.0423,0.0432,0.0452,0.0445,0.0454,0.0457,0.0459,0.0463,0.0404,0.0456,0.0456,0.0455,0.0455,0.0455,0,0.0282,0.0289,0.0306,0.0324,0.0339,0.0332,0.0347,0.036,0.0381,0.0393,0.041,0.0436,0.0457,0.0467,0.0488,0.0502,0.0501,0.0508,0.0508,0.0511,0.0466,0.046,0.0509,0.0509,0.0509,0.0509,0.0509,0.0509,0.0309,0.0335,0.0337,0.0368,0.0376,0.0399,0.0408,0.042,0.0431,0.0459,0.0477,0.0483,0.0495,0.0518,0.0538,0.0541,0.055,0.0558,0.056,0.0519,0.0513,0.0508,0.0502,0.0559,0.056,0.0603,0.0603,0.0604]},{"header":{"parameterUnit":"m.s-1","parameterCategory":1,"la1":30.2991,"la2":30.254,"lo1":-89.0895,"lo2":-89.0444,"dy":0.0017,"dx":0.0017,"nx":28,"ny":28,"refTime":"2025-03-18T21:00:00:Z","depth":0,"parameterNumber":3,"parameterNumberName":"V-component_of_WINDS"},"data":[0,0,0,0,0,0,0,0,0,0,0,0,0,0,0,0,0,0,0,0,0,0,0,0,0,0,0,0,0,0,0,0,0,0,0,0,0,0,0,0,0,0,0,0,0,0,0,0,0,0,0,0,0,0,0,0,0,0,5.9976,5.9975,0,5.9924,5.9924,5.9923,5.9888,5.9888,5.9888,5.9888,5.983,5.9829,5.9828,0,0,0,0,0,0,0,0,0,0,0,0,0,6.0041,6.004,5.9976,5.9975,5.9974,5.9924,5.9924,5.9923,5.9888,5.9888,5.9888,5.9888,5.9831,5.9829,5.9828,0,0,0,0,0,0,0,0,0,0,0,0,0,6.0003,6.004,5.9976,5.9951,5.9949,5.9924,5.9924,5.9923,5.9888,5.9888,5.9888,5.9887,5.9831,5.9829,5.9827,5.9822,0,0,5.9821,5.982,0,0,0,0,0,0,0,0,6.0006,6.0001,5.9956,5.9953,5.995,5.9913,5.9926,5.9889,5.9889,5.9911,5.9888,5.9887,5.9858,5.9853,5.9844,5.9819,5.9817,5.9821,5.982,5.9819,5.9818,0,0,0,0,0,0,0,6.0008,6.0003,5.9955,5.9955,5.9951,5.9942,5.9936,5.9918,5.9887,5.9909,5.9907,5.9901,5.9856,5.9846,5.9843,5.9816,5.9821,5.9819,5.9818,5.9817,5.9786,5.9787,0,0,0,0,0,0,6.0015,6.0005,5.9957,5.9954,5.9978,5.9941,5.9935,5.9925,5.9887,5.9881,5.9902,5.99,5.985,5.9845,5.9841,5.9833,5.9819,5.9817,5.9816,5.9786,5.9787,5.9787,0,0,0,0,0,0,6.0017,6.0011,5.9959,5.9979,5.9972,5.994,5.9929,5.9924,5.9914,5.9881,5.9875,5.9898,5.9849,5.9843,5.9828,5.9831,5.9816,5.9815,5.9786,5.9786,5.9787,5.9818,0,0,0,0,0,0,6.0019,6.0012,6.001,5.9979,5.9971,5.9948,5.993,5.9923,5.9912,5.9909,5.9876,5.987,5.9849,5.9831,5.9826,5.9828,5.9813,5.9785,5.9786,5.9787,5.9817,5.982,5.9822,0,0,0,0,0,6.0021,6.0019,6.001,6.0005,5.9968,5.9948,5.9943,5.992,5.9912,5.991,5.9889,5.9871,5.9832,5.983,5.9824,5.9825,5.9785,5.9786,5.9787,5.9815,5.9819,5.9822,0,0,0,0,0,0,6.0049,6.0015,6.0004,5.9992,5.9974,5.9942,5.9938,5.9924,5.9905,5.9903,5.9874,5.9867,5.9855,5.9838,5.9837,5.9819,5.9806,5.9806,5.983,5.9833,5.9836,5.984,5.9811,0,0,0,0,0,6.0054,6.0042,6.0012,6.0005,5.9996,5.9969,5.996,5.9944,5.9922,5.9914,5.9891,5.987,5.9853,5.9842,5.9825,5.9815,5.9807,5.9813,5.9816,5.9818,5.9818,5.9813,5.9815,5.979,5.979,5.979,0,0,6.0064,6.0044,6.0038,6.001,5.9994,5.9982,5.9963,5.995,5.994,5.9911,5.9896,5.9879,5.9854,5.9842,5.9835,5.9827,5.9824,5.9819,5.9821,5.982,5.9814,5.9817,5.9819,5.979,5.979,5.979,0,0,6.0076,6.0059,6.0052,6.0037,6.0013,5.9996,5.9994,5.9966,5.9954,5.9939,5.9918,5.9906,5.9876,5.986,5.9847,5.9857,5.984,5.9851,5.9866,5.9861,5.9864,5.9865,5.9869,5.9871,5.9852,5.9852,5.9852,0,6.009,6.0072,6.005,6.0039,6.0028,6.0004,5.9997,5.9982,5.9954,5.9946,5.9939,5.9904,5.9885,5.9869,5.9872,5.9863,5.986,5.9855,5.9865,5.9867,5.9868,5.9872,5.9873,5.9853,5.9853,5.9853,5.9853,0,6.0092,6.0079,6.0076,6.0052,6.0041,6.0031,6.0008,5.9999,5.9985,5.9968,5.9954,5.9931,5.9909,5.9904,5.9889,5.9887,5.9883,5.9871,5.9857,5.9872,5.9875,5.9877,5.9856,5.9855,5.9854,5.9854,0,0,6.0117,6.0083,6.0082,6.0072,6.0046,6.0035,6.0026,6.0007,6.0,5.9982,5.9973,5.9951,5.994,5.9926,5.9909,5.9906,5.9916,5.9894,5.9893,5.99,5.9914,5.9924,5.9926,5.9906,5.9906,5.9906,5.9917,0,6.0125,6.0108,6.0089,6.0078,6.0067,6.0046,6.0038,6.0021,6.0005,5.9993,5.9976,5.9961,5.9948,5.994,5.9935,5.9916,5.9919,5.9915,5.9897,5.9897,5.9904,5.9927,5.9936,5.9948,5.9918,5.9918,5.9918,0,6.0131,6.0117,6.0106,6.0083,6.0078,6.0071,6.0053,6.0042,6.0022,6.0012,5.9999,5.9981,5.997,5.9959,5.9944,5.9942,5.9933,5.9923,5.9923,5.992,5.9908,5.9925,5.995,5.9952,5.9919,5.9919,5.9919,0,6.0152,6.013,6.0121,6.0112,6.0085,6.0081,6.0069,6.005,6.004,6.0025,6.0019,6.0001,5.9991,5.9978,5.9957,5.9951,5.9945,5.9931,5.9935,5.9936,5.9934,5.9934,5.9959,5.9929,5.9929,5.9929,5.9929,0,6.0163,6.0157,6.013,6.0125,6.0118,6.0097,6.009,6.0076,6.006,6.0051,6.0031,6.0023,5.9996,5.9984,5.9968,5.9958,5.9954,5.9945,5.994,5.9947,5.9948,5.994,5.9939,5.9929,5.9929,5.9929,5.9929,0,6.0184,6.0166,6.0155,6.0132,6.0126,6.0122,6.0101,6.0095,6.008,6.007,6.0066,6.0042,6.0028,6.0006,5.9985,5.9974,5.9967,5.996,5.9975,5.9972,5.9978,5.9978,5.9998,6.0,5.9969,5.9969,5.997,0,6.0192,6.0188,6.0165,6.0159,6.0149,6.0138,6.013,6.0109,6.01,6.008,6.0076,6.0062,6.0048,6.0028,6.0007,5.9992,5.9984,5.9992,5.9981,5.9989,5.9985,5.9986,5.9986,5.9995,5.9995,5.9995,5.9996,0,6.0209,6.0201,6.019,6.0177,6.0167,6.0155,6.0142,6.0138,6.0114,6.0106,6.0093,6.0083,6.0063,6.0049,6.0031,6.0018,6.0003,6.0,6.0,6.0006,6.0015,6.0011,5.9982,5.9999,5.9999,5.9998,5.9998,5.9998,6.0224,6.022,6.0204,6.0193,6.0182,6.0171,6.0165,6.015,6.0139,6.0123,6.0111,6.0099,6.0082,6.0057,6.0046,6.0036,6.0029,6.0029,6.0029,6.0029,6.0032,6.0018,6.0032,6.0032,6.0032,6.0032,6.0032,0,6.024,6.023,6.022,6.0204,6.0195,6.0184,6.017,6.0163,6.0154,6.014,6.0128,6.0114,6.0101,6.0082,6.0067,6.0063,6.0056,6.006,6.006,6.0058,6.0039,6.004,6.0066,6.0066,6.0066,6.0066,6.0066,6.0066,6.0247,6.0241,6.0231,6.0219,6.0208,6.0198,6.0191,6.0181,6.017,6.0156,6.0146,6.0134,6.0118,6.0103,6.009,6.0085,6.0081,6.0087,6.0079,6.0062,6.0059,6.0056,6.0057,6.0086,6.0086,6.0099,6.0099,6.0099]}]]